Regional Weather Roundup
Issued by NWS

Home | Current Version | Previous Version | Graphics & Text | Print | Product List | Glossary On
Versions: 1 2 3 4 5 6 7 8 9 10 11 12 13 14 15 16 17 18 19 20 21 22 23 24 25 26 27 28 29 30 31 32 33 34 35 36 37 38 39 40 41 42 43 44 45 46 47 48 49 50
000
ASUS43 KLMK 301810
RWRKY
KENTUCKY REGIONAL WEATHER ROUNDUP
NATIONAL WEATHER SERVICE LOUISVILLE KY
200 PM EDT SAT AUG 30 2014

NOTE "FAIR" INDICATES FEW OR NO CLOUDS BELOW 12,000 FEET
WITH NO SIGNIFICANT WEATHER AND/OR OBSTRUCTIONS TO VISIBILITY.

KYZ001>023-026-027-061>063-070>075-301900-
WESTERN AND SOUTH CENTRAL KENTUCKY

CITY           SKY/WX    TMP DP  RH WIND       PRES   REMARKS
PADUCAH        TSTM      74  72  93 CALM      30.05S VSB 1/4
HENDERSON      CLOUDY    81  70  69 S7        30.03S
OWENSBORO      LGT RAIN  81  72  74 MISG        N/A
HOPKINSVILLE   DRIZZLE   77  77 100 S5        30.07F
BOWLING GREEN  CLOUDY    83  69  62 SW12      30.09R
GLASGOW        CLOUDY    81  68  65 SW7       30.10S
$$

KYZ024-025-028>034-038-045-046-053-301900-
NORTH CENTRAL KENTUCKY

CITY           SKY/WX    TMP DP  RH WIND       PRES   REMARKS
LOUISVILLE/SDF PTSUNNY   86  69  56 SW9       30.04F HX  90
LOUISVILLE/LOU PTSUNNY   86  69  56 SW7       30.05F HX  90
FORT KNOX      CLOUDY    85  73  68 S7        30.05S HX  92
$$

KYZ035>037-039>044-047>052-055>060-089>105-301900-
NORTHEAST KENTUCKY

CITY           SKY/WX    TMP DP  RH WIND       PRES   REMARKS
LEXINGTON      MOSUNNY   89  67  47 S12       30.09F HX  92
COVINGTON      PTSUNNY   85  66  53 S9        30.06F
FRANKFORT      MOSUNNY   88  68  51 SW10      30.06F HX  91
$$

KYZ054-064>069-076>088-106>120-301900-
SOUTHEAST KENTUCKY

CITY           SKY/WX    TMP DP  RH WIND       PRES   REMARKS
JACKSON        PTSUNNY   87  68  52 CALM      30.14F HX  90
LONDON         MOSUNNY   88  66  48 S8        30.13F HX  90
SOMERSET       MOSUNNY   86  63  45 SW7       30.13S
MIDDLESBORO    PTSUNNY   87  67  51 S5        30.15F
MONTICELLO     MOCLDY    86  69  56 SW9       30.13F HX  90
$$



USA.gov is the U.S. government's official web portal to all federal, state and local government web resources and services.